Preview of NWS' New Version of Forecast
This preview is not operational and should not be used for support decisions.

Regional Weather Roundup (RWR)

Issued by National Weather Service (NWS)

                            
000
ASUS43 KBIS 201310
RWRND 

NORTH DAKOTA REGIONAL WEATHER ROUNDUP
NATIONAL WEATHER SERVICE BISMARCK ND
800 AM CDT THU JUN 20 2019

NOTE: "FAIR" INDICATES FEW OR NO CLOUDS BELOW 12,000 FEET WITH NO
SIGNIFICANT WEATHER AND/OR OBSTRUCTIONS TO VISIBILITY.


NDZ001>003-009>011-017-201400-
NORTHWEST NORTH DAKOTA
  
CITY           SKY/WX    TMP DP  RH WIND       PRES   REMARKS
WILLISTON      CLOUDY    57  54  89 CALM      29.69S                  
MINOT          LGT RAIN  56  55  97 E12       29.68F                  
MINOT AFB      LGT RAIN  55  55 100 E13       29.68S FOG              
$$
 
NDZ018>021-031>035-040>046-201400-
SOUTHWEST NORTH DAKOTA
  
CITY           SKY/WX    TMP DP  RH WIND       PRES   REMARKS
BISMARCK       LGT RAIN  58  56  93 E3        29.68S                  
DICKINSON      PTSUNNY   54  52  93 SW8       29.71R                  
GARRISON         N/A     55  55 100 SW5       29.68S                  
HETTINGER ARPT CLOUDY    54  53  97 W8        29.74R                  
$$
 
NDZ004>008-012>016-024-026-027-054-201400-
NORTHEAST NORTH DAKOTA
  
CITY           SKY/WX    TMP DP  RH WIND       PRES   REMARKS
GRAND FORKS    CLOUDY    63  52  67 E9        29.74S                  
GRND FRKS AFB  PTSUNNY   61  61 100 E5        29.75S                  
DEVILS LAKE    LGT RAIN  60  54  80 E9        29.74F                  
$$
 
NDZ022-023-025-028>030-036>039-047>053-201400-
SOUTHEAST NORTH DAKOTA
  
CITY           SKY/WX    TMP DP  RH WIND       PRES   REMARKS
FARGO          CLOUDY    62  53  72 E9        29.72F                  
JAMESTOWN      CLOUDY    60  57  89 E16       29.68F                  
$$